Content
SEND FEEDBACK

Daily
Averages
Monthly
Summary
United States of America

ST. LOUIS, MISSOURI


Home > North America > United States > Missouri
Elevation: 535 feet     Latitude: 38 45N     Longitude: 090 22W

WEATHER
 
SELECT A DAY
Number of Records: 196,619;   Date Range: 1/1/95 - 9/16/14
 
SHARE

PRINT THIS DATA

[ ← Previous Day ]
WEATHER ALMANAC - MARCH 25, 2013
[ Next Day → ]
[ °C ]   °F
Weather ElementAverageHighLow
Temperature31.9 °F36 °F (2:54 pm)28.4 °F (7:23 am)
Dewpoint26.3 °F28.4 °F (12:20 am)23 °F (4:41 pm)
Humidity80.1 %93 % (2:19 am)60 % (4:41 pm)
Barometer29.98 in30.23 in (11:54 pm)29.85 in (12:20 am)
Wind Speed13.6 mph19.6 mph (3:54 pm)
Wind Gust28.8 mph (3:44 pm)
Weather ElementAverage
Visibility4.8 mi
Wind DirectionWNW (288.8 °)

Weather ElementTotal
Precipitation0.02 in
Heating Degree Days32.8 (Base 65)
Averaged from 48 records on March 25, 2013
WEATHER CONDITIONS BREAKOUT
WIND DIRECTION BREAKOUT
WEATHER BY HOUR - MARCH 25, 2013
[ °C ]   °F
Local TimeTemperatureDewpointHumidityBarometerVisibilityWind DirectionWind SpeedGust SpeedPrecipitationEventsConditions
12:20 AM32.0 °F28.4 °F87 %29.85 in2.5 miWNW (300°)13.8 mph0.00 inSnowLight Snow
12:27 AM32.0 °F28.4 °F87 %29.85 in3.0 miWNW (300°)16.1 mph23.0 mph0.00 inSnowLight Snow
12:54 AM32.0 °F28.0 °F85 %29.88 in3.0 miWNW (290°)15.0 mph23.0 mph0.00 inSnowLight Snow
1:05 AM32.0 °F28.4 °F87 %29.86 in2.5 miWNW (290°)15.0 mph0.00 inSnowLight Snow
1:52 AM30.2 °F26.6 °F86 %29.87 in2.5 miWNW (290°)15.0 mph23.0 mph0.00 inSnowLight Snow
1:54 AM30.9 °F28.0 °F89 %29.89 in2.5 miWNW (290°)15.0 mph23.0 mph0.00 inSnowLight Snow
2:19 AM30.2 °F28.4 °F93 %29.87 in3.0 miWNW (290°)13.8 mph0.00 inSnowLight Snow
2:34 AM30.2 °F28.4 °F93 %29.87 in3.0 miWNW (290°)15.0 mph0.00 inSnowLight Snow
2:46 AM30.2 °F26.6 °F86 %29.87 in4.0 miWNW (290°)11.5 mph0.00 inSnowLight Snow
2:54 AM30.9 °F27.0 °F85 %29.89 in3.0 miWNW (290°)15.0 mph0.00 inSnowLight Snow
3:27 AM30.2 °F26.6 °F86 %29.87 in3.0 miWest (280°)15.0 mph0.00 inSnowLight Snow
3:46 AM30.2 °F26.6 °F86 %29.87 in2.5 miWest (280°)15.0 mph0.00 inSnowLight Snow
3:54 AM30.9 °F27.0 °F85 %29.89 in2.0 miWest (280°)13.8 mph19.6 mph0.00 inSnowLight Snow
4:01 AM30.2 °F26.6 °F86 %29.86 in1.8 miWest (280°)13.8 mph0.00 inSnowLight Snow
4:18 AM30.2 °F26.6 °F86 %29.86 in2.0 miWNW (290°)16.1 mph24.2 mph0.00 inSnowLight Snow
4:33 AM30.2 °F26.6 °F86 %29.86 in4.0 miWNW (290°)15.0 mph0.00 inSnowLight Snow
4:54 AM30.0 °F26.1 °F85 %29.90 in6.0 miWest (280°)15.0 mph0.00 inOvercast
5:54 AM30.0 °F25.0 °F82 %29.91 in7.0 miWest (280°)13.8 mphOvercast
6:54 AM28.9 °F24.1 °F82 %29.93 in7.0 miWest (280°)15.0 mphOvercast
7:23 AM28.4 °F24.8 °F86 %29.92 in2.0 miWest (280°)12.7 mph0.00 inSnowLight Snow
7:39 AM28.4 °F24.8 °F86 %29.93 in2.0 miWest (280°)13.8 mph0.00 inSnowLight Snow
7:49 AM28.4 °F24.8 °F86 %29.93 in2.0 miWest (280°)12.7 mph0.00 inSnowLight Snow
7:54 AM28.9 °F25.0 °F85 %29.96 in2.0 miWest (280°)12.7 mph0.00 inSnowLight Snow
8:54 AM30.0 °F25.0 °F82 %29.98 in2.0 miWest (280°)15.0 mph19.6 mph0.00 inSnowLight Snow
9:01 AM30.2 °F26.6 °F86 %29.96 in2.0 miWest (280°)13.8 mph0.00 inSnowLight Snow
9:17 AM30.2 °F26.6 °F86 %29.96 in2.0 miWest (280°)11.5 mph20.7 mph0.00 inSnowLight Snow
9:54 AM30.9 °F27.0 °F85 %30.00 in2.0 miWNW (290°)13.8 mph20.7 mph0.00 inSnowLight Snow
10:54 AM33.1 °F28.0 °F82 %30.02 in2.0 miWNW (300°)12.7 mph0.00 inSnowLight Snow
11:20 AM33.8 °F28.4 °F81 %30.00 in1.8 miWNW (290°)13.8 mph21.9 mph0.00 inSnowLight Snow
11:32 AM33.8 °F28.4 °F81 %30.01 in2.5 miWNW (290°)11.5 mph0.00 inSnowLight Snow
11:44 AM33.8 °F28.4 °F81 %30.01 in3.0 miWNW (290°)12.7 mph0.00 inSnowLight Snow
11:54 AM34.0 °F28.0 °F79 %30.04 in3.0 miWNW (290°)11.5 mph18.4 mph0.00 inSnowLight Snow
12:08 PM33.8 °F28.4 °F81 %30.02 in2.5 miWNW (290°)15.0 mph0.00 inSnowLight Snow
12:54 PM35.1 °F28.0 °F76 %30.04 in5.0 miWNW (290°)16.1 mph0.00 inHaze
1:54 PM35.1 °F28.0 °F76 %30.05 in4.0 miWNW (290°)11.5 mph0.00 inSnowLight Snow
2:41 PM35.6 °F28.4 °F75 %30.03 in10.0 miWNW (290°)16.1 mph23.0 mph0.00 inOvercast
2:54 PM36.0 °F28.0 °F73 %30.06 in10.0 miWNW (290°)12.7 mph0.00 inOvercast
3:44 PM35.6 °F26.6 °F70 %30.05 in10.0 miWNW (300°)15.0 mph28.8 mph0.01 inMostly Cloudy
3:54 PM35.1 °F26.1 °F70 %30.08 in8.0 miWNW (300°)19.6 mph25.3 mph0.01 inSnowLight Snow
4:41 PM35.6 °F23.0 °F60 %30.07 in10.0 miNW (310°)13.8 mph25.3 mph0.00 inOvercast
4:54 PM35.1 °F23.0 °F61 %30.11 in10.0 miWNW (300°)18.4 mph0.00 inOvercast
5:54 PM34.0 °F23.0 °F64 %30.13 in10.0 miNW (320°)15.0 mphOvercast
6:54 PM33.1 °F23.0 °F66 %30.16 in10.0 miWNW (290°)12.7 mphOvercast
7:54 PM33.1 °F24.1 °F70 %30.18 in10.0 miWNW (290°)10.4 mphOvercast
8:54 PM32.0 °F23.0 °F69 %30.20 in10.0 miWest (280°)6.9 mphOvercast
9:54 PM32.0 °F23.0 °F69 %30.22 in10.0 miWNW (290°)8.1 mphOvercast
10:54 PM32.0 °F23.0 °F69 %30.22 in10.0 miWest (280°)8.1 mphOvercast
11:54 PM32.0 °F23.0 °F69 %30.23 in10.0 miWest (280°)6.9 mphOvercast
Hourly data recorded from KSUS, located miles away from St. Louis, Missouri







STORIES FROM OUR PARTNERS